This demonstration page uses our WeatherBlox Daily Observations layout. Learn more.

Left ArrowRight Arrow

Hourly Observations for June 7, 2021

Temp ( °F °C ) Dew Point ( °F °C ) Humidity (%) Winds ( mph kmh ) Pressure ( in mb ) Visibility ( mi km ) Precip ( " mm )
12:15 am 00:15 Clear 72 22.3 63 17 72 72 S 9 15 29.71 1006 10 16 N/A
12:35 am 00:35 Clear 72 22.1 63 17 73 73 S 8 13 29.71 1006 10 16 N/A
12:55 am 00:55 Clear 71 21.7 63 17 75 75 S 7 11 29.71 1006 10 16 N/A
1:15 am 01:15 Clear 72 22 63 17.3 75 75 S 10 17 29.70 1006 10 16 N/A
1:35 am 01:35 Clear 72 22.1 64 17.5 75 75 S 10 17 29.70 1006 10 16 N/A
1:55 am 01:55 Clear 71 21.8 64 17.5 77 77 S 10 17 29.70 1006 10 16 N/A
2:15 am 02:15 Clear 71 21.5 64 17.5 78 78 S 10 17 29.71 1006 10 16 N/A
2:35 am 02:35 Clear 71 21.5 64 17.5 78 78 S 10 17 29.70 1006 10 16 N/A
2:55 am 02:55 Clear 70 21.2 64 17.6 80 80 S 8 13 29.70 1006 10 16 N/A
3:15 am 03:15 Clear 70 21 64 17.7 82 82 S 8 13 29.70 1006 10 16 N/A
3:35 am 03:35 Clear 69 20.6 64 17.8 84 84 S 7 11 29.70 1006 10 16 N/A
3:55 am 03:55 Clear 69 20.5 64 18 86 86 S 8 13 29.70 1006 10 16 N/A
4:15 am 04:15 Clear 69 20.6 65 18.1 86 86 S 10 17 29.70 1006 10 16 N/A
4:35 am 04:35 Partly Cloudy 69 20.5 65 18.1 86 86 S 9 15 29.70 1006 10 16 N/A
4:55 am 04:55 Partly Cloudy 69 20.3 65 18.2 88 88 S 10 17 29.71 1006 10 16 N/A
5:15 am 05:15 Clear 68 20 64 18 88 88 S 6 9 29.71 1006 10 16 N/A
5:35 am 05:35 Clear 67 19.5 64 17.9 91 91 S 6 9 29.71 1006 10 16 N/A
5:55 am 05:55 Clear 67 19.3 64 18 92 92 S 6 9 29.71 1006 10 16 N/A
6:15 am 06:15 Partly Cloudy 66 19.1 64 17.8 92 92 S 5 7 29.72 1006 10 16 N/A
6:35 am 06:35 Partly Cloudy 67 19.2 64 18 93 93 S 5 7 29.71 1006 10 16 N/A
6:55 am 06:55 Partly Cloudy 67 19.3 65 18.1 93 93 SSE 6 9 29.71 1006 10 16 N/A
7:15 am 07:15 Partly Cloudy 68 20 65 18.5 91 91 SSE 7 11 29.72 1006 10 16 N/A
7:35 am 07:35 Sunny 69 20.5 66 18.7 89 89 SSE 9 15 29.72 1007 10 16 N/A
7:55 am 07:55 Sunny 70 21 66 18.7 87 87 S 7 11 29.73 1007 10 16 N/A
8:15 am 08:15 Sunny 72 22 67 19.3 85 85 S 8 13 29.72 1006 10 16 N/A
8:35 am 08:35 Sunny 73 22.9 67 19.5 81 81 S 10 17 29.72 1007 10 16 N/A
8:55 am 08:55 Partly Cloudy 73 23 67 19.5 81 81 S 9 15 29.72 1007 10 16 N/A
9:15 am 09:15 Partly Cloudy 73 22.5 67 19.4 83 83 S 9 15 29.74 1007 10 16 N/A
9:35 am 09:35 Mostly Cloudy 74 23.5 67 19.5 78 78 S 10 17 29.74 1007 10 16 N/A
9:55 am 09:55 Mostly Cloudy 75 23.9 67 19.6 77 77 S 9 15 29.74 1007 10 16 N/A
10:15 am 10:15 Partly Cloudy 77 25 68 19.8 73 73 S 14 22 29.73 1007 10 16 N/A
10:35 am 10:35 Sunny 78 25.7 68 19.9 70 70 S 9 15 29.72 1006 10 16 N/A
10:55 am 10:55 Sunny 80 26.4 69 20.3 69 69 S 10 17 29.72 1006 10 16 N/A
11:15 am 11:15 Sunny 81 27.1 69 20.3 66 66 SSW 8 13 29.71 1006 10 16 N/A
11:35 am 11:35 Sunny 82 27.5 68 20 64 64 S 10 17 29.70 1006 10 16 N/A
11:55 am 11:55 Sunny 83 28.4 67 19.7 59 59 S 8 13 29.69 1005 10 16 N/A
12:15 pm 12:15 Partly Cloudy 84 28.9 67 19.4 57 57 SSE 14 22 29.69 1005 10 16 N/A
12:35 pm 12:35 Partly Cloudy 85 29.2 65 18.4 52 52 S 13 20 29.68 1005 10 16 N/A
12:55 pm 12:55 Partly Cloudy 85 29.5 64 17.9 50 50 SSE 14 22 29.68 1005 10 16 N/A
1:15 pm 13:15 Partly Cloudy 87 30.3 63 17.3 46 46 S 12 19 29.67 1005 10 16 N/A
1:35 pm 13:35 Partly Cloudy 86 30 62 16.6 44 44 SSE 10 17 29.67 1005 10 16 N/A
1:55 pm 13:55 Partly Cloudy 87 30.4 60 15.8 41 41 SSE 9 15 29.67 1005 10 16 N/A
2:15 pm 14:15 Partly Cloudy 87 30.4 63 17 45 45 S 13 20 29.67 1005 10 16 N/A
2:35 pm 14:35 Partly Cloudy 86 30.1 62 16.6 44 44 S 8 13 29.67 1005 10 16 N/A
2:55 pm 14:55 Partly Cloudy 87 30.7 63 17 44 44 SSW 13 20 29.65 1004 10 16 N/A
3:15 pm 15:15 Partly Cloudy 88 31 61 16.3 41 41 S 10 17 29.65 1004 10 16 N/A
3:35 pm 15:35 Partly Cloudy 87 30.7 61 16.1 41 41 S 16 26 29.65 1004 10 16 N/A
3:55 pm 15:55 Partly Cloudy 88 31.1 61 16.1 40 40 S 16 26 29.65 1004 10 16 N/A
4:15 pm 16:15 Partly Cloudy 88 31.3 61 15.9 39 39 S 10 17 29.64 1004 10 16 N/A
4:35 pm 16:35 Partly Cloudy 89 31.5 58 14.2 35 35 S 13 20 29.64 1004 10 16 N/A
4:55 pm 16:55 Partly Cloudy 87 30.5 59 14.8 38 38 S 14 22 29.64 1004 10 16 N/A
5:15 pm 17:15 Partly Cloudy 88 31.3 57 13.9 35 35 SSE 14 22 29.63 1003 10 16 N/A
5:35 pm 17:35 Sunny 88 31.3 58 14.5 36 36 SSW 10 17 29.63 1003 10 16 N/A
5:55 pm 17:55 Sunny 88 31.1 57 14 35 35 S 9 15 29.62 1003 10 16 N/A
6:15 pm 18:15 Sunny 88 31.3 57 14 35 35 SW 8 13 29.62 1003 10 16 N/A
6:35 pm 18:35 Partly Cloudy 88 31 58 14.7 37 37 S 10 17 29.62 1003 10 16 N/A
6:55 pm 18:55 Sunny 87 30.6 59 14.9 38 38 S 7 11 29.62 1003 10 16 N/A
7:15 pm 19:15 Sunny 86 30.1 60 15.3 41 41 S 10 17 29.63 1003 10 16 N/A
7:35 pm 19:35 Sunny 85 29.5 60 15.5 43 43 SSE 12 19 29.64 1004 10 16 N/A
7:55 pm 19:55 Sunny 84 29.1 61 16.3 46 46 S 10 17 29.66 1004 10 16 N/A
8:15 pm 20:15 Sunny 83 28.4 62 16.5 48 48 SSE 8 13 29.66 1004 10 16 N/A
8:35 pm 20:35 Sunny 82 27.6 62 16.6 51 51 SSE 6 9 29.68 1005 10 16 N/A
8:55 pm 20:55 Sunny 80 26.9 62 16.5 53 53 SE 8 13 29.68 1005 10 16 N/A
9:15 pm 21:15 Clear 79 26 64 17.7 60 60 SE 10 17 29.70 1006 10 16 N/A
9:35 pm 21:35 Clear 78 25.5 67 19.5 70 70 SSE 12 19 29.71 1006 10 16 N/A
9:55 pm 21:55 Clear 77 25 68 19.9 73 73 SSE 10 17 29.74 1007 10 16 N/A
10:15 pm 22:15 Clear 76 24.4 67 19.7 75 75 SSE 12 19 29.75 1008 10 16 N/A
10:35 pm 22:35 Clear 75 24 67 19.5 76 76 SSE 10 17 29.77 1008 10 16 N/A
10:55 pm 22:55 Clear 74 23.6 67 19.3 77 77 SSE 10 17 29.79 1009 10 16 N/A
11:15 pm 23:15 Clear 74 23.1 66 19.1 78 78 SSE 7 11 29.79 1009 10 16 N/A
11:35 pm 23:35 Clear 73 22.5 66 19.1 81 81 SSE 7 11 29.80 1009 10 16 N/A
11:55 pm 23:55 Clear 72 22.3 66 18.8 81 81 SSE 8 13 29.80 1009 10 16 N/A

Powered by AerisWeather